This is the latest recevied weather packets stored in our database for station/object 9W2UHF-10. If no packets are shown the sender has not sent any weather packets the latest 1 day(s).
| Time | Temp. | Humidity | Pressure | Rain* | Wind** | Luminosity | Snow |
|---|---|---|---|---|---|---|---|
| 1778060977 | 32.78° C | 68% | 1007.8 hPa | - | - | - | - |
| 1778056229 | 32.78° C | 62% | 1007.8 hPa | - | - | - | - |
| 1778050177 | 32.22° C | 68% | 1008.9 hPa | - | - | - | - |
| 1778048977 | 32.22° C | 67% | 1009.7 hPa | - | - | - | - |
| 1778047814 | 32.22° C | 67% | 1009.7 hPa | - | - | - | - |
| 1778047777 | 32.22° C | 67% | 1009.7 hPa | - | - | - | - |
| 1778046773 | 32.78° C | 66% | 1010.1 hPa | - | - | - | - |
| 1778046577 | 32.78° C | 66% | 1010.1 hPa | - | - | - | - |
| 1778045458 | 32.78° C | 68% | 1010.6 hPa | - | - | - | - |
| 1778045377 | 32.78° C | 68% | 1010.6 hPa | - | - | - | - |
| 1778044290 | 32.78° C | 67% | 1010.7 hPa | - | - | - | - |
| 1778044177 | 32.78° C | 67% | 1010.7 hPa | - | - | - | - |
| 1778042977 | 32.78° C | 68% | 1010.8 hPa | - | - | - | - |
| 1778041777 | 32.22° C | 69% | 1011.1 hPa | - | - | - | - |
| 1778040577 | 31.67° C | 72% | 1011.5 hPa | - | - | - | - |
| 1778039452 | 31.67° C | 72% | 1011.9 hPa | - | - | - | - |
| 1778039377 | 31.67° C | 72% | 1011.9 hPa | - | - | - | - |
| 1778037012 | 31.11° C | 73% | 1012.3 hPa | - | - | - | - |
| 1778034628 | 30.56° C | 75% | 1012.3 hPa | - | - | - | - |
| 1778034576 | 30.56° C | 75% | 1012.3 hPa | - | - | - | - |
| 1778033376 | 30.56° C | 74% | 1012.4 hPa | - | - | - | - |
| 1778030976 | 30.56° C | 74% | 1012.1 hPa | - | - | - | - |
| 1778029776 | 30.56° C | 75% | 1011.9 hPa | - | - | - | - |
| 1778028576 | 30.56° C | 74% | 1011.6 hPa | - | - | - | - |
| 1778027376 | 30.56° C | 74% | 1011.2 hPa | - | - | - | - |
* Rain since midnight (hover to see other rain measurements)
** Current wind speed in m/s (hover to see current wind gust speed)